Regional Weather Roundup
Issued by NWS Goodland, KS

Home | Current Version | Previous Version | Graphics & Text | Print | Product List | Glossary On
Versions: 1 2 3 4 5 6 7 8 9 10 11 12 13 14 15 16 17 18 19 20 21 22 23 24 25 26 27 28 29 30 31 32 33 34 35 36 37 38 39 40 41 42 43 44 45 46 47 48 49 50
000
ASUS43 KGLD 181659
RWRGLD

GOODLAND FORECAST AREA HOURLY WEATHER ROUNDUP
NATIONAL WEATHER SERVICE GOODLAND KS
1000 AM MST THU DEC 18 2014

...OFFICIAL OBSERVATIONS...

CITY           SKY/WX    TMP DP  RH WIND       PRES   REMARKS
GOODLAND KS    CLOUDY    24  23  96 S6        30.11R
HILL CITY KS   CLOUDY    28  25  88 W5        30.19R
IMPERIAL NEB   CLOUDY    25  23  92 W7        30.11R FOG
MCCOOK NEB     CLOUDY    25  24  96 S3        30.15R
AKRON CO       MOSUNNY   24  21  88 W10       30.05R FOG     WCI  14
BURLINGTON CO  SUNNY     26  22  84 W7        30.08R
LIMON CO       MOSUNNY   34  27  75 CALM      30.07R
$$

...UNOFFICIAL OBSERVATIONS...

CITY           SKY/WX    TMP DP  RH WIND       PRES   REMARKS
GOVE KS          N/A     29  32 100 MISG        N/A
SHARON SPRINGS   N/A     27  26  96 CALM        N/A
TRIBUNE KS     CLOUDY    30  30 100 SW6       30.14S
KIT CARSON CO    N/A     21  19  91 MISG        N/A
YUMA CO          N/A     23  22  94 CALM        N/A
$$



USA.gov is the U.S. government's official web portal to all federal, state and local government web resources and services.